Regional Weather Roundup
Issued by NWS Green Bay, WI

Home | Current Version | Previous Version | Graphics & Text | Print | Product List | Glossary Off
Versions: 1 2 3 4 5 6 7 8 9 10 11 12 13 14 15 16 17 18 19 20 21 22 23 24 25 26 27 28 29 30 31 32 33 34 35 36 37 38 39 40 41 42 43 44 45 46 47 48 49 50

000
ASUS43 KGRB 261111
RWRGRB

NORTH-CENTRAL AND NORTHEAST WISCONSIN REGIONAL WEATHER ROUNDUP
NATIONAL WEATHER SERVICE GREEN BAY WI
600 AM CDT TUE JUL 26 2016

WIZ005-009-010>012-018-019-261200-
NORTH CENTRAL WISCONSIN

CITY           SKY/WX    TMP DP  RH WIND       PRES   REMARKS
IRONWOOD       PTCLDY    63  61  94 CALM      30.02R
MANITOWISH WTR CLEAR     57  57 100 CALM      30.06S FOG
ARBOR VITAE    CLEAR     62  60  95 CALM      30.07R
EAGLE RIVER      N/A     57  57 100 CALM      30.06R FOG
LAND O LAKES   PTCLDY    53  53 100 CALM      30.07R FOG
RHINELANDER    CLEAR     61  59  93 W6        30.08R
PHILLIPS       CLEAR     61  61  99 CALM      30.06S
ANTIGO         CLEAR     56  56 100 CALM      30.08S
TOMAHAWK       CLEAR     55  54  95 CALM      30.08R
MERRILL        CLEAR     55  55 100 CALM      30.08S
$$

WIZ013-073-261200-
NORTHEAST WISCONSIN

CITY           SKY/WX    TMP DP  RH WIND       PRES   REMARKS
IRON MOUNTAIN  CLEAR     59  55  87 N3        30.02R
MARINETTE      CLEAR    N/A N/A N/A CALM      30.03S
OCONTO         CLEAR    N/A N/A N/A CALM      30.03S
$$

WIZ017-030-035>037-045-261200-
CENTRAL WISCONSIN

CITY           SKY/WX    TMP DP  RH WIND       PRES   REMARKS
MEDFORD        CLEAR     59  59 100 CALM      30.08S
WAUSAU         CLEAR     61  60  97 CALM      30.06R
MOSINEE        CLEAR     61  61 100 CALM      30.08S
MARSHFIELD     CLEAR     63  60  90 W5        30.07S
WISC RAPIDS    FOG       61  58  90 CALM      30.08S VSB 1
STEVENS POINT  CLEAR     56  56  99 CALM      30.08R
WAUPACA        CLEAR     63  63  99 CALM      30.06S
SHAWANO        PTCLDY    63  61  93 W3        30.05S
CLINTONVILLE   PTCLDY    63  61  94 CALM      30.05S
WAUTOMA        NOT AVBL
$$

WIZ038-039-048-051-261200-
FOX VALLEY

CITY           SKY/WX    TMP DP  RH WIND       PRES   REMARKS
NWS GREEN BAY  CLEAR     62  62 100 CALM      30.04S
APPLETON       CLEAR     63  61  94 VRB3      30.04S
OSHKOSH        CLEAR     64  61  90 CALM      30.06R
FOND DU LAC    CLEAR     63  60  90 SW3       30.07S
$$

WIZ022-050-052-261200-
EAST CENTRAL WISCONSIN

CITY           SKY/WX    TMP DP  RH WIND       PRES   REMARKS
EPHRAIM        FAIR      66  64  93 W5        30.02R
WASHINGTON ISL NOT AVBL
STURGEON BAY   CLEAR     65  64  97 W5        30.04S
MANITOWOC      CLEAR     65  60  84 CALM      30.05R
SHEBOYGAN      PTCLDY    64  62  93 CALM      30.06R
$$

LMZ563-521-522-541>543-261200-
LAKESHORE

STATION/POSITION TIME  TEMP    WIND        PRES    VSBY  WAVE
                       AIR SEA DIR/SP/G                  HT/PER
                 (UTC) (F)     (DEG/KT/KT) (MB)    (MI)  (FT/S)
SHEBOYGAN LKSHOR 1100   69     270/  1/  2 1017.6R
KEWAUNEE LKSHORE 1000   65     300/  5/  5 1016.3R
ALGOMA MARINA    1013          320/  6/  7   N/A
NORTHPORT PIER   1000   68     280/  3/  5 1016.3R
N MID LAKE BUOY  1050   70 69  250/  8/  8 1015.5R         1
S GREEN BAY BUOY 1030   69 73  280/  6/  6   N/A
SISTER BAY LKSHO 1021   71     320/  7/  8   N/A
CHAMBERS ISLAND  1000   66     240/  3/  5 1016.6R
MENOMINEE LKSHOR 1000   68     270/  4/  7 1015.7R
$$




USA.gov is the U.S. government's official web portal to all federal, state and local government web resources and services.